EW4104 Weather Reports


time (UTC)temp
C
wind
direction
speed
KPH
gust
KPH
rain 1hr
cm
rain 24hr
cm
rain mn
cm
humidity
%
barometer
mb
20190425180837 12 203 3.2 6.4 0.03 0.41 0.25 83 1007.1
20190425175803 12 184 1.6 4.8 0.05 0.41 0.25 83 1006.8
20190425174802 12 225 3.2 8.0 0.05 0.46 0.25 82 1006.8
20190425173801 12 180 3.2 6.4 0.05 0.46 0.25 82 1006.8
20190425172728 12 214 3.2 8.0 0.05 0.46 0.25 83 1006.4
20190425171728 12 214 3.2 12.9 0.03 0.43 0.23 82 1006.8
20190425170727 13 180 8.0 25.7 0.03 0.46 0.23 82 1006.4
20190425165726 13 213 8.0 19.3 0.00 0.43 0.20 82 1006.4
20190425164726 13 230 8.0 12.9 0.00 0.43 0.20 82 1006.1
20190425163652 13 199 3.2 9.7 0.00 0.46 0.20 83 1005.8
20190425162652 13 225 4.8 16.1 0.00 0.46 0.20 84 1006.1
20190425161651 13 179 6.4 22.5 0.00 0.48 0.20 84 1005.8
20190425160650 13 111 4.8 16.1 0.00 0.53 0.20 85 1005.4
20190425155650 13 154 6.4 11.3 0.00 0.53 0.20 85 1005.1
20190425154649 13 207 4.8 17.7 0.00 0.53 0.20 85 1005.1
20190425153648 13 152 3.2 17.7 0.00 0.53 0.20 85 1005.4
20190425152647 13 163 4.8 17.7 0.00 0.53 0.20 85 1004.7
20190425151647 13 216 6.4 17.7 0.00 0.53 0.20 85 1005.1
20190425150614 13 94 6.4 11.3 0.00 0.53 0.20 86 1004.7
20190425145509 13 167 4.8 17.7 0.03 0.53 0.20 85 1004.7
20190425144508 13 146 8.0 16.1 0.03 0.53 0.20 85 1005.1
20190425143330 13 122 9.7 16.1 0.05 0.53 0.20 85 1005.1
20190425142257 13 207 3.2 11.3 0.05 0.53 0.20 84 1005.1
20190425141224 13 225 6.4 14.5 0.05 0.58 0.20 84 1005.1
20190425140119 13 158 11.3 20.9 0.05 0.58 0.20 84 1005.1
20190425135118 13 185 3.2 19.3 0.03 0.56 0.18 84 1005.1
20190425134118 13 236 4.8 19.3 0.03 0.56 0.18 84 1005.1
20190425133117 13 212 12.9 20.9 0.03 0.53 0.15 84 1005.1
20190425132117 13 225 8.0 20.9 0.03 0.53 0.15 84 1004.7
20190425130939 13 167 8.0 17.7 0.08 0.53 0.15 83 1005.1
20190425125938 13 217 8.0 17.7 0.08 0.53 0.15 82 1004.7
20190425124938 13 162 4.8 12.9 0.10 0.53 0.15 82 1004.4
20190425123937 14 151 9.7 17.7 0.10 0.51 0.13 80 1004.1
20190425122936 14 243 8.0 14.5 0.10 0.51 0.13 78 1004.1
20190425121903 15 203 11.3 17.7 0.08 0.48 0.10 78 1004.1
20190425120902 15 172 9.7 17.7 0.05 0.46 0.08 77 1003.7
20190425115901 15 190 3.2 22.5 0.05 0.46 0.08 76 1003.7
20190425114900 15 198 14.5 22.5 0.03 0.43 0.05 74 1003.4
20190425113859 16 211 9.7 22.5 0.00 0.41 0.03 73 1003.4
20190425112619 16 54 6.4 27.4 0.00 0.41 0.03 72 1003.0
20190425111618 16 194 9.7 20.9 0.00 0.41 0.03 71 1003.0
20190425110617 16 144 6.4 19.3 0.00 0.41 0.03 71 1003.0
20190425105616 16 113 3.2 12.9 0.00 0.41 0.03 71 1003.0
20190425104616 16 113 9.7 12.9 0.00 0.41 0.03 72 1002.7
20190425103511 16 150 6.4 19.3 0.00 0.41 0.03 72 1003.0
20190425102510 16 110 6.4 16.1 0.00 0.41 0.03 73 1003.0
20190425101334 15 165 8.0 24.1 0.00 0.41 0.03 74 1003.0
20190425100333 15 145 11.3 20.9 0.00 0.41 0.03 75 1002.7
20190425095332 15 140 8.0 20.9 0.00 0.41 0.03 75 1002.7
20190425094332 15 217 6.4 19.3 0.00 0.41 0.03 75 1003.0
20190425093259 14 203 9.7 20.9 0.00 0.41 0.03 76 1002.7
20190425092259 14 146 17.7 32.2 0.00 0.41 0.03 77 1003.0
20190425091226 13 12 9.7 16.1 0.00 0.41 0.03 78 1003.0
20190425090154 13 110 9.7 25.7 0.00 0.41 0.03 78 1002.7
20190425085153 13 155 11.3 22.5 0.00 0.41 0.03 80 1002.7
20190425084152 12 203 9.7 20.9 0.00 0.41 0.03 81 1003.0
20190425083047 12 92 8.0 20.9 0.00 0.41 0.03 82 1002.7
20190425082046 12 98 14.5 32.2 0.00 0.41 0.03 81 1002.7
20190425080942 11 194 6.4 16.1 0.00 0.41 0.03 81 1002.7
20190425075941 11 90 6.4 19.3 0.00 0.41 0.03 81 1003.0
20190425074908 11 81 4.8 17.7 0.00 0.41 0.03 81 1003.0
20190425073908 11 90 3.2 17.7 0.00 0.41 0.03 81 1003.4
20190425072804 11 115 12.9 20.9 0.00 0.41 0.03 82 1003.4
20190425071731 11 174 6.4 17.7 0.00 0.41 0.03 83 1003.4
20190425070658 10 170 8.0 24.1 0.00 0.41 0.03 83 1003.0
20190425065449 10 95 6.4 12.9 0.00 0.41 0.03 83 1003.0
20190425064416 10 109 8.0 12.9 0.00 0.41 0.03 83 1003.0
20190425063310 10 119 6.4 12.9 0.00 0.41 0.03 84 1002.7
20190425062310 10 186 4.8 8.0 0.00 0.41 0.03 84 1002.7
20190425061309 10 88 3.2 12.9 0.00 0.41 0.03 84 1002.4
20190425060308 10 203 1.6 6.4 0.00 0.41 0.03 84 1002.4
20190425055308 10 178 3.2 11.3 0.00 0.41 0.03 84 1002.4
20190425054235 10 154 8.0 17.7 0.00 0.41 0.03 84 1002.0
20190425053202 10 161 4.8 12.9 0.00 0.41 0.03 84 1002.0
20190425052129 10 120 6.4 11.3 0.00 0.41 0.03 85 1002.0
20190425051128 10 135 3.2 8.0 0.00 0.41 0.03 85 1002.0
20190425050127 10 146 3.2 19.3 0.00 0.41 0.03 85 1002.0
20190425045054 10 153 4.8 14.5 0.00 0.41 0.03 86 1001.7
20190425043949 9 128 3.2 11.3 0.00 0.41 0.03 86 1001.7
20190425042949 9 144 3.2 11.3 0.00 0.41 0.03 86 1001.7
20190425041948 9 110 6.4 11.3 0.00 0.41 0.03 87 1001.7
20190425040842 9 180 6.4 16.1 0.00 0.41 0.03 88 1001.7
20190425035841 9 169 3.2 17.7 0.00 0.41 0.03 88 1002.0
20190425034841 8 208 3.2 11.3 0.00 0.41 0.03 87 1001.7
20190425033736 8 99 4.8 14.5 0.00 0.41 0.03 87 1001.7
20190425032735 8 101 3.2 8.0 0.00 0.41 0.03 87 1001.7
20190425031452 8 90 3.2 6.4 0.00 0.41 0.03 86 1001.7
20190425030419 8 68 1.6 4.8 0.00 0.41 0.03 86 1001.7
20190425025208 8 90 1.6 3.2 0.00 0.41 0.03 86 1001.7
20190425024208 8 90 0.0 6.4 0.00 0.41 0.03 86 1001.7
20190425023135 8 68 1.6 6.4 0.00 0.41 0.03 86 1001.7
20190425022134 8 90 1.6 8.0 0.00 0.41 0.03 86 1001.7
20190425021134 8 62 3.2 16.1 0.00 0.41 0.03 86 1001.4
20190425020028 8 68 1.6 4.8 0.00 0.41 0.03 86 1001.7
20190425015028 8 135 1.6 9.7 0.00 0.41 0.03 86 1001.7
20190425014027 8 90 6.4 9.7 0.00 0.41 0.03 85 1002.0
20190425013027 8 68 1.6 6.4 0.00 0.41 0.03 85 1002.0
20190425012026 8 68 1.6 3.2 0.00 0.41 0.03 85 1001.7
20190425010953 8 59 4.8 8.0 0.00 0.41 0.03 84 1001.7
20190425005920 8 90 1.6 8.0 0.00 0.41 0.03 84 1002.0
20190425004920 8 45 0.0 3.2 0.00 0.41 0.03 83 1002.0
20190425002746 8 45 0.0 1.6 0.00 0.41 0.03 83 1002.4
20190425001745 9 45 0.0 1.6 0.00 0.41 0.03 83 1002.4
20190425000745 9 0 0.0 0.0 0.00 0.41 0.03 83 1002.0
20190424235744 9 0 0.0 1.6 0.00 0.41 0.03 83 1002.0
20190424234744 9 68 0.0 1.6 0.00 0.41 0.03 83 1002.0
20190424233743 10 68 0.0 1.6 0.00 0.41 0.03 84 1002.0
20190424232710 10 68 1.6 1.6 0.03 0.41 0.03 84 1002.0
20190424231709 10 90 0.0 3.2 0.03 0.41 0.03 84 1002.0
20190424230636 10 90 3.2 4.8 0.03 0.41 0.03 84 1002.4
20190424225636 10 113 1.6 6.4 0.03 0.41 0.03 84 1002.4
20190424224635 10 113 0.0 3.2 0.03 0.41 0.03 84 1002.4
20190424223634 10 113 1.6 4.8 0.03 0.41 0.03 84 1002.4
20190424222601 11 135 3.2 4.8 0.00 0.38 0.00 84 1002.4
20190424221456 11 90 1.6 8.0 0.00 0.38 0.00 84 1002.4
20190424220455 11 124 3.2 6.4 0.00 0.38 0.00 84 1002.4
20190424215454 11 106 3.2 8.0 0.00 0.38 0.38 84 1002.4
20190424214349 11 129 3.2 8.0 0.00 0.38 0.38 84 1002.4
20190424213348 11 158 0.0 11.3 0.00 0.38 0.38 84 1002.4
20190424212347 11 109 3.2 9.7 0.00 0.38 0.38 84 1002.4
20190424211347 11 188 3.2 8.0 0.00 0.38 0.38 84 1002.4
20190424210346 11 90 0.0 1.6 0.00 0.38 0.38 84 1002.0
20190424205240 11 113 1.6 9.7 0.00 0.38 0.38 83 1002.0
20190424204207 12 180 1.6 4.8 0.00 0.38 0.38 83 1002.0
20190424203029 12 110 3.2 11.3 0.05 0.38 0.38 83 1002.0
20190424201818 12 150 6.4 12.9 0.08 0.38 0.38 83 1002.0
20190424200745 12 64 6.4 14.5 0.10 0.38 0.38 82 1001.7
20190424195712 12 157 4.8 17.7 0.10 0.38 0.38 82 1001.7
20190424194711 12 126 4.8 12.9 0.10 0.38 0.38 81 1001.7
20190424193638 12 53 3.2 17.7 0.08 0.36 0.36 82 1001.7
20190424192533 12 173 8.0 17.7 0.08 0.33 0.33 82 1001.7
20190424191500 12 176 8.0 14.5 0.05 0.30 0.30 81 1001.7
20190424190427 12 151 11.3 17.7 0.05 0.28 0.28 80 1001.4
20190424185426 13 83 12.9 24.1 0.10 0.28 0.28 80 1001.0
20190424184425 13 90 4.8 14.5 0.10 0.28 0.28 78 1001.0
20190424183424 13 82 1.6 17.7 0.08 0.25 0.25 78 1000.7
20190424182319 13 135 4.8 6.4 0.08 0.25 0.25 77 1000.3